User: anonymous   Login
Location: Unspecified
(0.0000°N, 0.0000°E)
Time: 19:40:47
(UTC+00:00)
Language:

Uribyol 2 - Orbit

View from above orbital plane
View from above orbital plane
View from above satellite
View from above satellite

Ground track
Ground track

The orbit data is extracted from the following two-line orbital elements,

1 22828U 93061F   19340.89045328 -.00000020 +00000-0 +10008-4 0  9993
2 22828 098.9043 331.9064 0009967 169.5871 190.5519 14.30724179334784
Epoch (UTC): 06 December 2019 21:22:15
Eccentricity: 0.0009967
inclination: 98.9043°
perigee height: 782 km
apogee height: 796 km
right ascension of ascending node: 331.9064°
argument of perigee: 169.5871°
revolutions per day: 14.30724179
mean anomaly at epoch: 190.5519°
orbit number at epoch: 33478

The dashed part of the orbit path shows where the satellite is in the earth's shadow,  

DLR